Regional Weather Roundup
Issued by NWS

Home | Current Version | Previous Version | Graphics & Text | Print | Product List | Glossary On
Versions: 1 2 3 4 5 6 7 8 9 10 11 12 13 14 15 16 17 18 19 20 21 22 23 24 25 26 27 28 29 30 31 32 33 34 35 36 37 38 39 40 41 42 43 44 45 46 47 48
435
ASUS45 KCYS 072010
RWRWY

WYOMING REGIONAL WEATHER ROUNDUP
NATIONAL WEATHER SERVICE CHEYENNE WY
100 PM MST SUN FEB 07 2016

NOTE:  "FAIR" INDICATES FEW OR NO CLOUDS BELOW 12,000 FEET
WITH NO SIGNIFICANT WEATHER AND/OR OBSTRUCTIONS TO VISIBILITY.

WYZ001-072100-
YELLOWSTONE NATIONAL PARK

CITY           SKY/WX    TMP DP  RH WIND       PRES   REMARKS
LK YELLOWSTONE   N/A     30   8  39 VRB6      30.44S WCI  24
W YELLOWSTONE  NOT AVBL

$$
WYZ002>013-054>058-071-098>099-072100-
NORTHERN WYOMING

CITY           SKY/WX    TMP DP  RH WIND       PRES   REMARKS
JACKSON        SUNNY     37  10  32 W9        30.45F WCI  31
CODY           FAIR      36  14  41 N10       30.38F WCI  28
GREYBULL       FAIR      39  11  31 N22G31    30.39F WCI  29
WORLAND        FAIR      37  13  37 CALM      30.42F
SHERIDAN       PTSUNNY   36   7  30 NW26      30.38F WCI  23
BUFFALO        FAIR      32  14  47 N30G44    30.33F WCI  18
GILLETTE       FAIR      32  13  45 NW32G43   30.31F WCI  17
HULETT         FAIR      34  10  37 NW22G36   30.26F WCI  22
NEWCASTLE      FAIR      32   5  32 NW32G52   30.27F WCI  17

$$
WYZ014>020-022>026-101>103-072100-
CENTRAL WYOMING

CITY           SKY/WX    TMP DP  RH WIND       PRES   REMARKS
BIG PINEY      FAIR      37  18  46 N16G23    30.42F WCI  28
PINEDALE       FAIR      32  18  55 W22G30    30.40F WCI  19
DUBOIS         FAIR      34   7  32 NW23G32   30.34F WCI  22
LANDER         FAIR      33  17  51 SE9       30.36F WCI  25
RIVERTON       FAIR      32  15  49 E8        30.38F WCI  25
CASPER         FAIR      28  14  55 SW6       30.36F WCI  22
DOUGLAS        CLOUDY    30  14  51 NW24G30     N/A  WCI  16

$$
WYZ021-027>030-104>119-072100-
SOUTHERN WYOMING

CITY           SKY/WX    TMP DP  RH WIND       PRES   REMARKS
EVANSTON       FAIR      32  20  61 SW13      30.53R WCI  22
FORT BRIDGER   CLEAR     36  21  55 W21       30.54R WCI  24
ROCK SPRINGS   FAIR      32  21  64 W37G43    30.41F WCI  16
DIXON          FAIR      35  19  52 SW8       30.48R WCI  28
RAWLINS        FAIR      29  22  75 W20       30.37F WCI  16
SARATOGA       FAIR      30  23  74 W26G32    30.38F WCI  16
LARAMIE        FAIR      26  20  77 N23G32    30.27F WCI  11
CHEYENNE       FAIR      30  16  56 NW30G44   30.25F WCI  15
TORRINGTON     CLOUDY    33  13  43 NW23G33   30.30F WCI  21
PINE BLUFFS    CLOUDY    30  21  69 N29G36    30.28F WCI  15

$$




USA.gov is the U.S. government's official web portal to all federal, state and local government web resources and services.